Weather History for Burlington, CO

Change the Weather History Date:

Saturday, January 26, 2013

  Actual Average Record
Temperature  
Mean Temperature 41 °F 30 °F  
Max Temperature 61 °F 42 °F 72 °F (2002)
Min Temperature 20 °F 17 °F -9 °F (1963)
Degree Days  
Heating Degree Days 24    
Moisture  
Dew Point 24 °F    
Average Humidity 58    
Maximum Humidity 92    
Minimum Humidity 26    
Precipitation  
Precipitation 0.02 in 0.02 in 0.80 in (1944)
Month to date precipitation 0.02 0.27  
Year to date precipitation 0.02 0.27  
Sea Level Pressure  
Sea Level Pressure 29.92 in    
Wind  
Wind Speed 7 mph (South)    
Max Wind Speed 13 mph    
Max Gust Speed -    
Visibility 10 miles    
Events Rain    
T = Trace of Precipitation, MM = Missing Value Source: NWS Daily Summary

Daily Weather History Graph

Daily Weather History Graph

Search for Another Location

Airport:

Trip Planner

Search our weather history database for the weather conditions in past years. The results will help you decide how hot, cold, wet, or windy it might be!

Date:

Astronomy

Jan. 26, 2013 Rise Set
Actual Time 7:00 AM MST 5:03 PM MST
Civil Twilight 6:32 AM MST 5:31 PM MST
Nautical Twilight 5:59 AM MST 6:04 PM MST
Astronomical Twilight 5:28 AM MST 6:35 PM MST
Moon 4:59 PM MST (1/26) 6:20 AM MST (1/26)
Length of Visible Light 10h 59m
Length of Day
10h 02m
Full, 100% of the Moon is Illuminated
Jan 26
Full
Jan 26
Full
Feb 3
Last Quarter
Feb 10
New
Feb 17
First Quarter

Hourly Weather History & Observations

Time (MST) Temp. Windchill Dew Point Humidity Pressure Visibility Wind Dir Wind Speed Gust Speed Precip Events Conditions
12:53 AM 30.0 °F 20.0 °F 19.0 °F 64% 30.04 in 10.0 mi South 12.7 mph - N/A   Clear
1:53 AM 21.9 °F 14.5 °F 16.0 °F 78% 30.06 in 10.0 mi SW 5.8 mph - N/A   Clear
2:53 AM 21.0 °F 12.4 °F 15.1 °F 78% 30.04 in 10.0 mi WSW 6.9 mph - N/A   Clear
3:53 AM 21.0 °F 11.4 °F 15.1 °F 78% 30.02 in 10.0 mi SW 8.1 mph - N/A   Clear
4:53 AM 21.0 °F 12.4 °F 15.1 °F 78% 30.03 in 10.0 mi SSW 6.9 mph - N/A   Clear
5:53 AM 21.0 °F 12.4 °F 16.0 °F 81% 30.06 in 10.0 mi SW 6.9 mph - N/A   Clear
6:53 AM 23.0 °F 13.9 °F 17.1 °F 78% 30.06 in 10.0 mi West 8.1 mph - N/A   Clear
7:53 AM 28.0 °F 21.7 °F 21.0 °F 75% 30.04 in 10.0 mi West 5.8 mph - N/A   Clear
8:53 AM 39.9 °F 35.8 °F 26.1 °F 58% 30.03 in 10.0 mi WNW 5.8 mph - N/A   Clear
9:53 AM 50.0 °F - 26.1 °F 39% 30.00 in 10.0 mi Calm Calm - N/A   Clear
10:53 AM 55.9 °F - 25.0 °F 30% 29.96 in 10.0 mi Calm Calm - N/A   Clear
11:53 AM 60.1 °F - 25.0 °F 26% 29.92 in 10.0 mi Calm Calm - N/A   Clear
12:53 PM 60.1 °F - 26.1 °F 27% 29.88 in 10.0 mi SE 8.1 mph - N/A   Clear
1:53 PM 60.1 °F - 25.0 °F 26% 29.89 in 10.0 mi ESE 6.9 mph - N/A   Clear
2:53 PM 59.0 °F - 25.0 °F 27% 29.88 in 10.0 mi SE 9.2 mph - N/A   Partly Cloudy
3:53 PM 55.0 °F - 24.1 °F 30% 29.88 in 10.0 mi SSE 11.5 mph - N/A   Overcast
4:53 PM 51.1 °F - 24.1 °F 35% 29.87 in 10.0 mi SSE 5.8 mph - N/A   Overcast
5:53 PM 48.9 °F - 25.0 °F 39% 29.87 in 10.0 mi SSE 10.4 mph - N/A   Mostly Cloudy
6:53 PM 46.0 °F 41.9 °F 28.0 °F 50% 29.86 in 10.0 mi SE 8.1 mph - N/A   Overcast
7:53 PM 45.0 °F 42.6 °F 30.0 °F 56% 29.83 in 10.0 mi SE 4.6 mph - N/A   Overcast
8:53 PM 41.0 °F 35.8 °F 34.0 °F 76% 29.79 in 8.0 mi SE 8.1 mph - 0.01 in Rain Light Rain
9:53 PM 39.9 °F 36.7 °F 35.1 °F 83% 29.76 in 10.0 mi East 4.6 mph - 0.01 in   Overcast
10:53 PM 36.0 °F 31.1 °F 33.1 °F 89% 29.73 in 9.0 mi East 5.8 mph - N/A   Scattered Clouds
11:53 PM 34.0 °F 28.0 °F 32.0 °F 92% 29.69 in 7.0 mi NE 6.9 mph - N/A   Mostly Cloudy